CAPE
18 11 5 0 0 0 0 0 0 0 0 0 0 0 0 0 0 0 0 0 0 0 0 0 0 0 0 0 0 0 0 0 0 0 0 0 0 0 0 0 0 0 0 0 0
13 17 14 7 2 0 0 0 0 0 0 0 0 0 0 0 0 0 0 0 0 0 0 0 0 0 0 0 0 0 0 0 0 0 0 0 0 0 0 0 0 0 0 0 0
7 8 15 14 14 1 0 0 0 0 0 0 0 0 0 0 0 0 0 0 0 0 0 0 0 0 0 0 0 0 0 0 0 0 0 0 0 0 0 0 0 0 0 0 0
9 5 12 16 10 3 0 0 0 0 0 0 0 0 0 0 0 0 0 0 0 0 0 0 0 0 0 0 0 0 0 0 0 0 0 0 0 0 0 0 0 0 0 0 0
8 0 0 12 14 10 3 2 1 0 0 0 0 0 0 0 0 0 0 0 0 0 0 0 0 0 0 0 0 0 0 0 0 0 0 0 0 0 0 0 0 0 0 0 0
3 0 0 4 5 13 7 10 5 3 0 0 0 0 0 0 0 0 0 0 0 0 0 0 0 0 0 0 0 0 0 0 0 0 0 0 0 0 0 0 0 0 0 0 0
17 14 0 0 12 11 6 6 18 19 1 0 0 0 0 0 0 0 0 0 0 0 0 0 0 0 0 0 0 0 0 0 0 0 0 0 0 0 0 0 0 0 0 0 0
29 79 8 25 21 3 0 1 9 28 21 10 0 0 0 0 0 0 0 0 0 0 4 0 0 0 0 0 0 0 0 0 0 0 0 0 0 0 0 0 0 0 0 0 0
11 63 17 56 52 5 0 4 8 20 38 9 0 2 2 0 0 0 0 0 0 0 0 5 0 0 0 0 0 0 0 0 0 0 0 0 0 0 0 0 0 0 0 0 0
25 14 82 99 33 0 0 0 23 24 34 48 20 19 0 0 0 0 0 0 5 21 0 0 0 0 0 0 0 0 0 0 0 0 0 0 0 0 0 0 0 0 0 0 0
27 20 38 87 7 7 17 0 10 9 27 0 0 0 0 0 0 0 0 0 12 14 0 0 0 0 0 0 0 0 0 0 0 0 0 0 0 0 0 0 0 0 0 0 0
28 29 49 73 23 38 13 0 0 0 2 6 0 14 0 0 0 0 0 0 6 0 0 0 0 0 0 0 0 0 0 0 0 0 0 0 0 0 0 0 0 0 0 0 0
45 29 51 61 46 42 0 0 0 0 0 5 0 9 0 0 0 0 0 0 0 3 2 0 0 0 0 0 0 0 0 0 0 0 0 0 0 0 0 0 0 0 0 0 0
53 70 91 55 8 9 4 5 0 4 0 2 9 18 7 0 0 0 0 0 0 0 2 0 0 0 0 0 0 0 0 0 0 0 0 0 0 0 0 0 0 0 0 0 0
53 80 57 21 13 16 4 0 0 3 0 0 7 21 0 0 0 0 0 2 4 0 0 0 0 0 0 0 0 0 0 0 0 0 0 0 0 0 0 0 0 0 0 0 0
58 84 12 12 18 17 0 0 0 0 0 0 7 11 12 15 18 1 0 0 0 3 16 10 1 8 1 1 0 5 0 0 0 0 0 0 0 0 0 0 0 0 0 0 0
69 55 15 5 2 0 0 0 0 0 0 0 3 9 12 10 20 3 0 1 0 5 3 10 7 1 0 4 10 6 0 0 0 0 0 0 0 0 0 0 0 0 0 0 0
45 53 9 9 0 0 0 0 0 0 0 0 1 4 7 12 24 7 2 0 0 6 0 2 0 0 0 0 0 0 0 0 0 0 0 0 0 0 0 0 0 0 0 0 0
19 48 20 7 0 0 1 0 0 0 0 0 10 10 8 12 13 13 9 1 0 0 0 1 3 0 0 0 1 0 2 0 0 0 0 0 0 0 0 0 0 0 0 0 0
38 22 17 6 2 0 0 0 0 0 0 0 0 3 0 1 1 7 7 0 2 0 0 0 0 0 0 0 0 0 0 0 0 0 0 0 0 0 0 0 0 0 0 0 0
18 0 0 2 0 2 0 0 0 0 0 0 0 0 0 1 0 1 0 0 1 4 35 0 0 0 3 1 0 0 0 0 0 0 0 0 0 0 0 0 0 0 0 0 0
0 0 0 2 0 0 0 0 0 0 0 0 0 0 0 0 0 6 4 2 3 18 17 1 0 0 0 0 5 7 3 7 0 0 0 0 0 0 0 0 0 0 0 0 0
0 1 0 25 0 0 1 0 0 0 0 0 0 0 0 0 0 1 4 0 1 22 10 15 3 0 12 1 6 16 0 0 2 4 0 3 0 0 0 0 0 0 0 0 0
0 0 0 5 3 0 0 0 0 0 0 0 0 0 0 2 3 10 14 0 3 41 35 23 12 1 0 0 0 0 0 0 0 2 1 0 0 0 0 0 0 0 0 0 0
0 0 0 0 0 0 0 0 0 0 0 0 0 0 0 0 0 2 21 0 7 35 33 14 0 14 10 14 0 0 0 0 0 0 0 0 0 0 0 0 0 0 0 0 0
0 0 0 0 1 0 0 0 0 0 0 0 0 0 0 0 0 0 5 13 11 25 50 35 3 9 0 0 0 0 0 0 0 0 0 0 0 0 0 0 0 0 0 0 0
1 0 0 0 0 0 0 0 0 0 0 0 0 0 0 0 1 4 2 24 18 5 20 33 19 5 0 0 0 0 0 0 0 0 0 0 0 0 0 0 0 0 0 0 0
CIN
-21 -24 -24 -0 -0 -0 -0 -0 -0 -0 -0 -0 -0 -0 -0 -0 -0 -0 -0 -0 -0 -0 -0 -0 -0 -0 -0 -0 -0 -0 -0 -0 -0 -0 -0 -0 -0 -0 -0 -0 -0 -0 -0 -0 -0
-28 -20 -19 -32 -19 -0 -0 -0 -0 -0 -0 -0 -0 -0 -0 -0 -0 -0 -0 -0 -0 -0 -0 -0 -0 -0 -0 -0 -0 -0 -0 -0 -0 -0 -0 -0 -0 -0 -0 -0 -0 -0 -0 -0 -0
-33 -25 -20 -26 -45 -34 -0 -0 -0 -0 -0 -0 -0 -0 -0 -0 -0 -0 -0 -0 -0 -0 -0 -0 -0 -0 -0 -0 -0 -0 -0 -0 -0 -0 -0 -0 -0 -0 -0 -0 -0 -0 -0 -0 -0
-32 -38 -33 -22 -30 -48 -5 -0 -0 -0 -0 -0 -0 -0 -0 -0 -0 -0 -0 -0 -0 -0 -0 -0 -0 -0 -0 -0 -0 -0 -0 -0 -0 -0 -0 -0 -0 -0 -0 -0 -0 -0 -0 -0 -0
-29 -0 -9 -26 -17 -26 -45 -39 -17 -0 -0 -0 -0 -0 -0 -0 -0 -0 -0 -0 -0 -0 -0 -0 -0 -0 -0 -0 -0 -0 -0 -0 -0 -0 -0 -0 -0 -0 -0 -0 -0 -0 -0 -0 -0
-13 -0 -0 -30 -28 -17 -22 -32 -39 -43 -0 -0 -0 -0 -0 -0 -0 -0 -0 -0 -0 -0 -0 -0 -0 -0 -0 -0 -0 -0 -0 -0 -0 -0 -0 -0 -0 -0 -0 -0 -0 -0 -0 -0 -0
-84 -65 -0 -2 -24 -19 -21 -31 -27 -33 -8 -0 -0 -0 -0 -0 -0 -0 -0 -0 -0 -0 -0 -0 -0 -0 -0 -0 -0 -0 -0 -0 -0 -0 -0 -0 -0 -0 -0 -0 -0 -0 -0 -0 -0
-42 -20 -99 -22 -25 -13 -0 -37 -24 -24 -28 -32 -0 -0 -0 -0 -0 -0 -0 -0 -0 -0 -3 -0 -0 -0 -0 -0 -0 -0 -0 -0 -0 -0 -0 -0 -0 -0 -0 -0 -0 -0 -0 -0 -0
-17 -17 -56 -17 -56 -57 -0 -48 -33 -24 -13 -16 -0 -3 -1 -0 -0 -0 -0 -0 -0 -0 -0 -3 -0 -0 -0 -0 -0 -0 -0 -0 -0 -0 -0 -0 -0 -0 -0 -0 -0 -0 -0 -0 -0
-7 -14 -12 -11 -50 -40 -0 -14 -23 -14 -48 -2 -3 -2 -0 -0 -0 -0 -0 -0 -0 -1 -0 -0 -0 -0 -0 -0 -0 -0 -0 -0 -0 -0 -0 -0 -0 -0 -0 -0 -0 -0 -0 -0 -0
-9 -10 -17 -11 -31 -99 -46 -0 -2 -2 -0 -0 -0 -0 -0 -0 -0 -0 -0 -0 -1 -1 -0 -0 -0 -0 -0 -0 -0 -0 -0 -0 -0 -0 -0 -0 -0 -0 -0 -0 -0 -0 -0 -0 -0
-3 -5 -18 -12 -17 -83 -99 -0 -0 -0 -0 -1 -0 -3 -0 -0 -0 -0 -0 -0 -0 -0 -0 -0 -0 -0 -0 -0 -0 -0 -0 -0 -0 -0 -0 -0 -0 -0 -0 -0 -0 -0 -0 -0 -0
-1 -10 -9 -15 -9 -43 -11 -0 -0 -0 -0 -0 -0 -3 -0 -2 -0 -0 -0 -0 -0 -0 -1 -0 -0 -0 -0 -0 -0 -0 -0 -0 -0 -0 -0 -0 -0 -0 -0 -0 -0 -0 -0 -0 -0
-1 -5 -8 -13 -4 -8 -1 -11 -5 -19 -2 -0 -0 -4 -4 -1 -1 -0 -0 -0 -0 -0 -1 -0 -0 -0 -0 -0 -0 -0 -0 -0 -0 -0 -0 -0 -0 -0 -0 -0 -0 -0 -0 -0 -0
-2 -1 -3 -17 -23 -0 -3 -0 -0 -6 -0 -0 -0 -4 -0 -0 -0 -0 -0 -6 -2 -0 -0 -0 -0 -1 -1 -0 -0 -0 -0 -0 -0 -0 -0 -0 -0 -0 -0 -0 -0 -0 -0 -0 -0
-0 -0 -2 -1 -8 -9 -0 -0 -0 -0 -0 -0 -1 -0 -0 -1 -2 -0 -0 -0 -0 -0 -2 -5 -9 -4 -0 -1 -0 -2 -0 -0 -0 -0 -0 -0 -0 -0 -0 -0 -0 -0 -0 -0 -0
-0 -0 -11 -6 -0 -0 -0 -0 -0 -0 -0 -0 -0 -0 -0 -0 -0 -7 -0 -0 -0 -0 -0 -3 -7 -7 -0 -2 -7 -2 -0 -0 -0 -0 -0 -0 -0 -0 -0 -0 -0 -0 -0 -0 -0
-0 -0 -3 -3 -2 -3 -0 -0 -0 -0 -0 -0 -0 -0 -0 -1 -0 -0 -0 -0 -0 -4 -1 -0 -1 -3 -0 -0 -0 -0 -0 -0 -0 -0 -0 -0 -0 -0 -0 -0 -0 -0 -0 -0 -0
-3 -0 -0 -1 -3 -0 -0 -0 -0 -0 -0 -0 -0 -0 -0 -0 -1 -0 -0 -0 -0 -0 -0 -1 -3 -0 -0 -0 -1 -0 -0 -0 -0 -0 -0 -0 -0 -0 -0 -0 -0 -0 -0 -0 -0
-0 -0 -1 -13 -17 -0 -0 -0 -0 -0 -0 -0 -0 -6 -0 -0 -0 -0 -0 -0 -0 -12 -6 -0 -0 -0 -0 -2 -0 -0 -0 -0 -0 -0 -0 -0 -0 -0 -0 -0 -0 -0 -0 -0 -0
-1 -0 -9 -0 -1 -0 -0 -0 -0 -0 -0 -0 -0 -0 -0 -0 -0 -0 -0 -0 -11 -33 -2 -0 -0 -0 -2 -0 -0 -0 -0 -0 -0 -0 -0 -0 -0 -0 -0 -0 -0 -0 -0 -0 -0
-0 -0 -0 -0 -0 -0 -0 -0 -0 -0 -1 -0 -0 -0 -0 -0 -0 -1 -2 -3 -2 -5 -2 -18 -0 -0 -0 -0 -21 -4 -7 -18 -0 -0 -0 -0 -0 -0 -0 -0 -0 -0 -0 -0 -0
-0 -0 -0 -0 -0 -0 -0 -0 -0 -0 -0 -0 -0 -0 -0 -1 -0 -1 -7 -0 -9 -7 -5 -6 -0 -1 -6 -11 -23 -5 -0 -0 -6 -8 -0 -1 -0 -0 -0 -0 -0 -0 -0 -0 -0
-0 -0 -0 -0 -0 -0 -0 -0 -0 -0 -0 -0 -0 -0 -0 -36 -50 -31 -4 -0 -28 -6 -7 -8 -9 -9 -0 -0 -0 -0 -0 -0 -0 -0 -0 -0 -0 -0 -0 -0 -0 -0 -0 -0 -0
-0 -0 -0 -0 -0 -0 -0 -0 -0 -0 -0 -0 -0 -0 -0 -0 -24 -32 -22 -0 -77 -51 -19 -12 -7 -18 -18 -18 -0 -0 -0 -0 -0 -0 -0 -0 -0 -0 -0 -0 -0 -0 -0 -0 -0
-0 -0 -0 -0 -0 -0 -0 -0 -0 -0 -0 -0 -0 -0 -0 -0 -0 -0 -26 -46 -52 -71 -33 -31 -26 -18 -0 -0 -0 -0 -0 -0 -0 -0 -0 -0 -0 -0 -0 -0 -0 -0 -0 -0 -0
-0 -0 -0 -0 -0 -0 -0 -0 -0 -0 -0 -0 -0 -0 -0 -0 -29 -29 -22 -41 -28 -21 -38 -30 -35 -31 -0 -0 -0 -0 -0 -0 -0 -0 -0 -0 -0 -0 -0 -0 -0 -0 -0 -0 -0
Wind_Speed
27 27 26 25 25 25 25 25 26 26 27 27 27 27 28 29 31 29 31 26 27 28 29 30 29 27 27 24 22 21 23 27 26 24 16 12 14 18 17 10 14 15 13 12 13
29 28 27 26 24 24 24 24 25 24 25 27 27 27 28 29 31 34 26 26 28 27 28 28 29 27 27 23 22 21 24 25 21 18 10 12 15 12 15 12 13 12 12 12 13
30 29 28 27 24 23 23 23 23 23 22 23 25 26 27 27 32 30 24 27 28 27 27 29 29 29 28 25 22 21 23 21 19 16 15 12 18 16 18 13 15 9 10 15 18
32 29 28 26 25 23 22 22 21 21 21 21 22 22 24 23 36 24 24 26 26 24 26 29 29 28 27 25 24 24 22 21 16 18 18 17 20 18 21 18 17 17 19 21 23
35 33 28 26 24 24 22 21 20 18 19 20 20 19 21 26 30 19 20 22 22 21 25 27 28 27 27 26 22 25 21 20 17 18 20 21 21 22 24 22 23 19 19 23 23
33 33 32 28 25 23 24 22 20 19 17 18 19 18 23 30 20 20 21 21 19 19 22 23 24 26 26 25 22 22 22 21 19 20 21 23 25 25 21 24 25 25 22 24 25
31 33 32 29 26 23 22 23 22 19 18 18 18 18 23 25 19 19 19 19 19 18 18 20 22 22 22 23 20 21 22 24 23 21 22 22 30 30 26 21 18 21 25 24 21
31 30 29 27 23 21 20 22 22 20 18 18 18 21 27 21 22 20 18 18 17 17 16 16 19 22 21 18 19 22 24 25 22 17 20 19 27 25 18 18 23 25 24 24 26
32 29 28 26 22 19 18 19 20 20 19 16 20 23 28 20 22 21 20 21 17 16 17 15 17 21 22 22 23 23 26 26 23 20 20 20 27 17 18 20 23 25 24 24 27
35 30 26 26 22 20 16 15 14 16 19 19 23 24 26 24 20 20 20 21 18 17 18 19 21 23 24 26 30 28 28 25 27 21 25 27 32 34 25 22 23 25 28 27 27
37 31 26 26 25 18 15 13 21 28 27 27 25 24 20 19 20 19 20 19 22 21 26 23 29 31 27 27 29 26 25 28 25 22 26 31 37 37 33 33 31 29 28 28 25
38 34 28 29 25 21 17 25 23 23 32 29 26 29 21 22 23 20 19 22 24 27 26 26 35 28 25 28 30 30 30 28 24 23 28 34 40 41 35 30 27 27 26 25 24
43 33 31 28 23 22 24 23 16 12 27 32 30 28 23 20 25 23 19 22 23 28 29 30 27 26 27 26 28 32 32 31 31 29 31 38 40 34 29 26 23 27 25 21 20
43 33 31 27 25 23 26 22 17 14 29 29 33 33 25 20 28 20 19 20 23 27 29 32 28 25 24 28 26 32 28 29 31 31 32 28 41 34 28 25 22 20 18 17 17
40 34 31 30 21 27 22 16 14 16 44 26 25 20 24 27 19 23 21 24 25 25 25 27 27 28 29 26 23 28 22 24 27 31 35 31 34 34 23 25 22 17 16 17 16
36 34 33 28 24 23 21 14 11 26 42 30 23 29 25 30 28 21 22 21 22 24 28 26 22 23 25 23 22 19 20 22 24 28 38 31 29 36 28 25 23 16 16 16 17
39 34 34 31 25 23 23 18 31 39 21 30 30 25 27 29 27 27 27 29 28 27 29 26 26 24 22 23 21 21 23 28 33 34 39 26 29 33 23 23 23 21 19 18 17
39 35 33 30 29 24 22 26 40 32 28 21 19 19 30 25 30 26 27 33 32 30 26 31 32 24 23 26 25 25 24 29 38 38 37 28 40 36 28 27 25 20 16 16 15
35 37 36 32 27 28 30 37 35 29 26 19 15 20 25 25 25 26 29 31 30 28 30 30 32 22 20 22 20 25 32 27 34 33 41 38 38 40 35 31 24 20 18 17 16
37 37 35 32 30 29 32 34 30 22 20 18 24 22 25 22 24 25 27 29 29 27 24 26 28 25 23 23 26 24 24 32 32 41 45 39 37 36 34 23 22 20 18 16 16
37 31 28 30 30 34 37 32 27 23 20 24 24 23 23 22 23 24 26 24 23 23 25 25 29 29 24 29 28 28 30 27 28 33 38 42 36 26 26 19 21 20 18 17 16
28 36 28 29 35 33 33 27 23 23 21 20 18 21 21 20 23 23 24 24 18 19 26 24 25 30 31 28 27 28 30 30 37 37 35 39 40 24 26 20 22 21 19 17 17
32 29 34 34 34 35 28 27 22 23 25 24 23 19 16 18 22 21 20 14 15 15 20 23 27 29 26 27 26 29 27 28 31 34 38 38 31 17 18 19 20 24 24 23 22
26 29 30 39 28 31 28 27 26 23 23 21 20 18 18 20 19 21 19 16 13 14 13 11 21 27 30 26 22 29 27 27 30 39 41 43 43 37 37 29 33 32 31 27 26
24 25 28 37 39 25 25 28 24 26 25 22 24 24 22 25 23 22 19 17 16 16 16 15 25 24 26 24 25 26 26 25 32 35 42 44 46 38 38 42 45 44 40 34 32
28 24 23 27 30 31 27 28 30 26 24 28 27 24 23 25 25 26 21 21 20 19 19 20 27 24 31 30 31 36 34 34 35 36 42 46 51 39 41 42 42 42 40 41 38
22 23 27 21 30 32 35 31 31 27 28 25 23 21 23 21 16 16 16 16 17 21 23 23 26 28 35 28 34 46 36 35 37 37 39 47 52 44 47 46 45 45 46 47 42
Wind_Direction
256 255 256 258 259 261 263 264 265 269 273 276 280 283 285 287 286 284 275 283 288 292 292 286 283 281 280 283 288 288 276 266 262 264 272 274 277 271 278 315 303 304 328 341 346
253 254 254 257 259 261 263 264 265 269 273 275 278 283 285 287 282 274 285 289 290 291 285 279 276 282 278 282 285 279 273 268 278 273 278 276 275 285 283 300 308 315 332 346 346
252 252 253 256 258 260 262 264 266 267 273 277 279 280 284 287 277 274 289 290 289 286 282 280 275 275 274 276 279 279 270 277 280 283 287 285 276 286 282 290 300 320 330 324 318
251 251 252 252 253 257 260 263 265 267 269 276 281 283 284 281 262 284 290 293 291 285 278 272 271 271 273 272 273 273 271 277 281 280 279 282 282 284 281 287 308 305 303 307 309
248 248 250 250 251 253 256 259 262 266 269 273 277 285 282 270 268 292 297 300 294 286 270 266 265 268 270 271 273 270 273 274 284 283 279 281 279 282 283 289 293 304 307 306 308
246 246 246 248 249 250 251 255 259 263 267 271 274 279 274 266 288 292 290 295 304 286 272 267 268 266 273 270 267 276 270 275 279 279 280 278 278 282 290 286 290 295 302 304 305
244 244 242 243 245 245 248 250 254 259 265 272 277 280 274 269 290 293 289 291 295 293 276 272 274 267 270 268 272 273 271 273 274 276 280 285 278 277 281 291 298 298 298 305 310
242 240 237 236 236 239 244 249 253 258 263 269 274 277 273 279 282 286 288 285 292 290 289 284 275 269 268 272 272 267 272 270 279 272 282 285 280 295 284 287 290 297 301 304 306
240 237 232 228 228 229 239 248 256 258 260 266 271 273 271 282 274 275 277 275 282 285 283 282 275 266 267 262 264 264 269 266 275 276 280 276 284 296 299 294 295 298 303 307 308
236 234 227 223 219 223 232 243 260 262 259 264 274 271 269 269 274 272 269 270 274 274 274 269 267 262 261 255 259 264 264 271 270 276 275 278 277 280 293 297 298 299 300 304 308
236 230 223 218 218 213 217 238 252 256 253 255 262 266 276 274 275 275 266 265 266 264 261 261 258 254 257 257 259 272 268 269 272 282 283 280 279 281 288 289 293 297 300 303 307
233 226 218 219 216 204 212 240 238 267 253 257 262 259 271 271 268 267 264 259 257 256 258 259 257 260 261 261 262 265 269 270 279 282 284 285 283 283 287 291 294 297 301 303 305
231 217 214 209 211 213 221 230 237 255 260 253 253 254 262 266 266 258 254 260 258 254 253 256 270 256 259 261 261 263 265 269 276 284 287 286 288 289 292 297 297 301 305 307 308
227 215 208 202 213 220 226 233 229 257 258 255 249 256 254 262 266 257 252 258 261 256 255 259 262 261 257 260 262 264 269 271 277 281 280 294 284 290 297 301 305 305 313 318 321
220 205 195 198 215 216 213 221 231 257 253 253 251 262 245 248 256 256 251 258 259 257 254 261 257 255 258 262 264 269 275 275 277 279 285 286 287 294 301 301 300 299 313 319 326
207 197 190 209 219 213 196 193 212 248 252 253 255 245 242 244 253 255 252 263 265 261 258 263 269 263 262 268 262 272 277 282 283 285 281 283 285 291 298 302 305 301 311 316 319
208 197 192 208 214 191 183 212 240 247 256 254 252 244 240 243 248 248 244 246 251 253 254 262 262 266 268 262 268 267 265 274 276 278 279 293 284 287 304 313 314 305 305 312 312
206 205 202 215 197 188 198 224 240 245 248 261 252 242 243 243 248 247 243 245 249 255 252 254 259 257 260 262 268 259 265 273 273 277 283 293 285 292 301 303 309 311 308 315 313
198 208 211 212 196 197 215 234 241 240 238 241 244 243 250 246 255 246 247 247 246 248 258 256 262 264 267 265 268 265 264 277 282 286 285 285 289 293 294 295 306 307 305 306 308
203 210 219 192 193 199 221 237 237 242 234 228 251 252 251 243 254 246 245 254 252 244 261 263 264 269 269 268 269 273 278 273 278 278 280 287 290 292 300 296 301 304 306 311 312
208 212 214 187 197 209 225 232 237 237 227 240 248 249 257 250 254 248 255 268 243 244 251 262 264 267 267 265 264 267 272 276 279 276 282 286 291 308 318 313 308 308 313 312 313
210 211 209 188 210 222 220 228 234 226 241 255 249 255 251 246 251 255 259 259 260 245 244 255 269 264 265 280 269 267 269 267 273 277 280 283 282 300 308 316 323 321 322 321 316
207 215 215 207 217 214 223 229 232 227 239 244 251 259 255 248 258 264 259 277 280 244 254 250 263 263 270 274 275 269 269 271 273 279 276 279 289 316 332 315 315 313 315 313 310
207 212 215 219 229 218 216 225 234 231 240 247 247 250 254 252 265 256 265 275 276 262 273 240 269 266 266 277 281 271 271 270 272 274 279 275 282 284 294 301 304 306 308 305 305
220 221 220 216 220 222 220 220 225 235 242 245 251 249 249 256 258 260 262 270 272 268 266 268 271 272 274 282 284 282 283 280 275 278 277 284 285 290 294 295 296 299 302 303 300
226 227 229 224 221 222 225 226 228 236 235 242 252 247 252 256 258 259 258 262 262 264 268 275 277 279 276 280 282 280 281 282 283 285 285 287 285 294 295 296 297 298 300 299 301
238 242 235 246 228 226 233 236 239 235 247 242 247 248 250 259 264 267 266 263 270 268 266 271 274 277 276 281 284 279 279 281 283 284 286 285 289 296 293 294 295 295 297 297 300